Weather History for Spirit of St Louis, MO

Change the Weather History Date:

Saturday, October 12, 2013

  Actual Average Record
Temperature  
Mean Temperature 63 °F -  
Max Temperature 79 °F 67 °F 84 °F (2008)
Min Temperature 48 °F 42 °F 32 °F (2006)
Degree Days  
Heating Degree Days 2    
Growing Degree Days 13 (Base 50)    
Moisture  
Dew Point 56 °F    
Average Humidity 77    
Maximum Humidity 94    
Minimum Humidity 39    
Precipitation  
Precipitation 0.03 in - - ()
Sea Level Pressure  
Sea Level Pressure 30.03 in    
Wind  
Wind Speed 2 mph (West)    
Max Wind Speed 12 mph    
Max Gust Speed -    
Visibility 9 miles    
Events Rain , Thunderstorm    
Averages and records for this station are not official NWS values.
T = Trace of Precipitation, MM = Missing Value Source: NWS Daily Summary

Daily Weather History Graph

Daily Weather History Graph

Search for Another Location

Airport:

Trip Planner

Search our weather history database for the weather conditions in past years. The results will help you decide how hot, cold, wet, or windy it might be!

Date:

Astronomy

Oct. 12, 2013 Rise Set
Actual Time 7:09 AM CDT 6:28 PM CDT
Civil Twilight 6:42 AM CDT 6:54 PM CDT
Nautical Twilight 6:11 AM CDT 7:25 PM CDT
Astronomical Twilight 5:40 AM CDT 7:56 PM CDT
Moon 2:34 PM CDT (10/12) 12:16 AM CDT (10/12)
Length of Visible Light 12h 12m
Length of Day
11h 19m
First Quarter, 59% of the Moon is Illuminated
Oct 12
First Quarter
Oct 18
Full
Oct 26
Last Quarter
Nov 3
New
Nov 9
First Quarter

Hourly Weather History & Observations

Time (CDT) Temp. Dew Point Humidity Pressure Visibility Wind Dir Wind Speed Gust Speed Precip Events Conditions
12:54 AM 57.9 °F 55.9 °F 93% 29.93 in 9.0 mi Calm Calm - N/A   Clear
1:54 AM 57.0 °F 55.0 °F 93% 29.94 in 7.0 mi Calm Calm - N/A   Clear
2:54 AM 60.1 °F 57.0 °F 90% 29.94 in 9.0 mi Calm Calm - N/A   Overcast
3:54 AM 64.0 °F 57.9 °F 80% 29.92 in 10.0 mi Calm Calm - N/A   Overcast
4:54 AM 64.0 °F 59.0 °F 84% 29.93 in 10.0 mi Calm Calm - N/A   Mostly Cloudy
5:45 AM 62.6 °F 59.0 °F 88% 29.97 in 10.0 mi Calm Calm - N/A Thunderstorm Thunderstorm
5:54 AM 63.0 °F 59.0 °F 87% 29.95 in 10.0 mi Calm Calm - 0.00 in Rain , Thunderstorm Light Thunderstorms and Rain
6:54 AM 64.0 °F 61.0 °F 90% 29.95 in 8.0 mi WSW 4.6 mph - 0.03 in Thunderstorm Thunderstorm
7:02 AM 62.6 °F 60.8 °F 94% 29.97 in 6.0 mi Calm Calm - N/A   Mostly Cloudy
7:54 AM 63.0 °F 61.0 °F 93% 29.97 in 7.0 mi Calm Calm - N/A   Overcast
8:54 AM 64.9 °F 61.0 °F 87% 29.99 in 7.0 mi Calm Calm - N/A   Overcast
9:11 AM 64.4 °F 62.6 °F 94% 30.00 in 7.0 mi SSE 3.5 mph - N/A   Partly Cloudy
9:54 AM 66.0 °F 62.1 °F 87% 30.00 in 8.0 mi Calm Calm - N/A   Overcast
10:54 AM 68.0 °F 62.1 °F 81% 30.04 in 10.0 mi SSW 4.6 mph - N/A   Mostly Cloudy
11:54 AM 70.0 °F 57.9 °F 65% 30.05 in 10.0 mi Calm Calm - N/A   Overcast
12:54 PM 73.0 °F 57.0 °F 57% 30.05 in 10.0 mi Calm Calm - N/A   Scattered Clouds
1:54 PM 77.0 °F 55.9 °F 48% 30.04 in 10.0 mi West 8.1 mph - N/A   Scattered Clouds
2:54 PM 78.1 °F 55.9 °F 46% 30.03 in 10.0 mi WNW 9.2 mph - N/A   Scattered Clouds
3:54 PM 75.9 °F 57.0 °F 52% 30.04 in 10.0 mi NNW 11.5 mph - N/A   Scattered Clouds
4:54 PM 75.0 °F 54.0 °F 48% 30.05 in 10.0 mi North 10.4 mph - N/A   Clear
5:54 PM 73.0 °F 46.9 °F 39% 30.06 in 10.0 mi NW 5.8 mph - N/A   Clear
6:54 PM 64.9 °F 46.0 °F 50% 30.09 in 10.0 mi NW 3.5 mph - N/A   Clear
7:54 PM 55.9 °F 48.0 °F 75% 30.12 in 10.0 mi Calm Calm - N/A   Clear
8:54 PM 52.0 °F 48.0 °F 86% 30.14 in 10.0 mi WSW 3.5 mph - N/A   Clear
9:54 PM 51.1 °F 48.0 °F 89% 30.17 in 10.0 mi West 3.5 mph - N/A   Clear
10:54 PM 48.0 °F 46.0 °F 93% 30.19 in 10.0 mi Calm Calm - N/A   Clear
11:54 PM 48.9 °F 45.0 °F 86% 30.21 in 10.0 mi Calm Calm - N/A   Clear